Location: Cedar Brake
(32.2526°N, 97.8459°W)
Time: 20:36:35
(UTC+00:00)

Cosmos 1943 - Pass Details

Date: 22 April 2026
Orbit: 832 x 847 km, 71.0° (Epoch: 21 May)

Event Time Altitude Azimuth Distance (km) Brightness Sun altitude
Exits shadow 03:27:19 44° 41° (NE) 1,153 3.8 -27.7°
Drops below altitude 10° 03:31:12 10° 26° (NNE) 2,469 5.7 -28.4°
Sets 03:33:39 0° 24° (NNE) 3,405 6.5 -28.8°
